Flag for Germany Weather past 2 weeks in Giessen, Hesse, Germany

Now
80 °F

Overcast.


Feels Like: 79 °F
Forecast: 56 / 86 °F
Wind: 3 mph from Northeast

Location: Giessen

Current Time: Aug 2, 2015 at 8:31:47 PM

Latest Report: Aug 2, 2015 at 8:00 PM


Visibility: 37 mi

Pressure: 30.03 "Hg

Humidity: 35%

Dew point: 50 °F

Location of GiessenLocation

Historic Weather in Giessen — Graph

°F

Giessen temperature yesterday

Maximum temperature yesterday: 80 °F (at 6:00 PM)
Minimum temperature yesterday: 54 °F (at 7:00 AM)
Average temperature yesterday: 66 °F

Past Weeks' High & Low Weather Summary

 TemperatureHumidityPressure
High88 °F (Jul 22, 3:00 PM)100% (Jul 19, 7:00 AM)30.14 "Hg (Jul 19, 7:00 AM)
Low48 °F (Jul 30, 4:00 AM)26% (Aug 1, 5:00 PM)29.59 "Hg (Jul 27, 10:00 AM)
Average66 °F65%29.89 "Hg
* Reported Jul 18 7:00 PM — Aug 2 7:00 PM, Giessen, Weather by CustomWeather, © 2015

Note: Actual official high and low records may vary slightly from our data, if they occured in-between our weather recording intervals... More about our weather records

Advertising

Giessen weather history for previous 24 hours

 ConditionsComfort  
Time TempWeatherWind HumidityBarometerVisibility
7:00 PM
Sun, Aug 2
81 °FPartly sunny.3 mph31%30.03 "Hg43 mi
6:00 PM83 °FSunny.3 mph29%30.03 "Hg28 mi
5:00 PM83 °FPassing clouds.1 mph28%30.04 "Hg31 mi
4:00 PM80 °FSunny.3 mph29%30.06 "Hg25 mi
3:00 PM80 °FPartly sunny.2 mph31%30.08 "Hg25 mi
2:00 PM80 °FScattered clouds.2 mph34%30.09 "Hg31 mi
1:00 PM78 °FScattered clouds.3 mph37%30.10 "Hg25 mi
12:00 PM74 °FSunny.5 mph43%30.11 "Hg19 mi
11:00 AM72 °FPassing clouds.6 mph46%30.11 "Hg28 mi
10:00 AM69 °FOvercast.6 mph50%30.11 "Hg19 mi
9:00 AM64 °FScattered clouds.1 mph65%30.11 "Hg25 mi
8:00 AM58 °FPassing clouds.1 mph76%30.11 "Hg22 mi
7:00 AM54 °FSunny.1 mph81%30.11 "Hg19 mi
6:00 AM54 °FPartly sunny.1 mph85%30.10 "Hg15 mi
5:00 AM56 °FClear.1 mph78%30.08 "Hg22 mi
4:00 AM55 °FClear.2 mph82%30.07 "Hg22 mi
2:00 AM60 °FOvercast.1 mph74%30.05 "Hg25 mi
1:00 AM62 °FOvercast.1 mph66%30.03 "Hg19 mi
11:00 PM
Sat, Aug 1
66 °FPassing clouds.3 mph55%30.00 "Hg34 mi
10:00 PM69 °FPassing clouds.5 mph47%29.98 "Hg37 mi
9:00 PM72 °FSunny.3 mph40%29.95 "Hg40 mi
8:00 PM78 °FPartly sunny.2 mph30%29.93 "Hg43 mi
Weather by CustomWeather, © 2015

See weather overviewHow to use our weather pages